Weather History for Hill City, KS

Change the Weather History Date:

Sunday, March 18, 2012

  Actual Average Record
Temperature  
Mean Temperature 69 °F 42 °F  
Max Temperature 79 °F 57 °F 91 °F (1928)
Min Temperature 59 °F 28 °F -3 °F (1958)
Cooling Degree Days 3    
Growing Degree Days 18 (Base 50)    
Moisture  
Dew Point 57 °F    
Average Humidity 73    
Maximum Humidity 93    
Minimum Humidity 48    
Precipitation  
Precipitation 0.00 in 0.05 in 0.87 in (2003)
Month to date precipitation 0.03 0.84  
Year to date precipitation 0.71 1.81  
Sea Level Pressure  
Sea Level Pressure 29.56 in    
Wind  
Wind Speed 22 mph (South)    
Max Wind Speed 31 mph    
Max Gust Speed 47 mph    
Visibility 10 miles    
Events      
T = Trace of Precipitation, MM = Missing Value Source: NWS Daily Summary

Daily Weather History Graph

Daily Weather History Graph

Search for Another Location

Airport:

Trip Planner

Search our weather history database for the weather conditions in past years. The results will help you decide how hot, cold, wet, or windy it might be!

Date:

Astronomy

Mar. 18, 2012 Rise Set
Actual Time 7:45 AM CDT 7:49 PM CDT
Civil Twilight 7:18 AM CDT 8:16 PM CDT
Nautical Twilight 6:47 AM CDT 8:47 PM CDT
Astronomical Twilight 6:15 AM CDT 9:19 PM CDT
Moon 5:23 AM CDT (3/18) 4:19 PM CDT (3/18)
Length of Visible Light 12h 58m
Length of Day
12h 04m
Waning Crescent, 15% of the Moon is Illuminated
Mar 18
Waning Crescent
Mar 22
New
Mar 30
First Quarter
Apr 6
Full
Apr 13
Last Quarter

Hourly Weather History & Observations

Time (CDT) Temp. Dew Point Humidity Pressure Visibility Wind Dir Wind Speed Gust Speed Precip Events Conditions
12:53 AM 64.9 °F 60.1 °F 84% 29.61 in 10.0 mi South 18.4 mph 28.8 mph N/A   Clear
1:53 AM 64.0 °F 60.1 °F 87% 29.60 in 10.0 mi South 19.6 mph 29.9 mph N/A   Clear
2:53 AM 63.0 °F 59.0 °F 87% 29.59 in 10.0 mi South 20.7 mph 29.9 mph N/A   Partly Cloudy
4:53 AM 61.0 °F 57.9 °F 90% 29.57 in 9.0 mi South 18.4 mph 26.5 mph N/A   Clear
5:53 AM 60.1 °F 57.0 °F 90% 29.58 in 8.0 mi South 19.6 mph 26.5 mph N/A   Clear
6:53 AM 59.0 °F 57.0 °F 93% 29.59 in 8.0 mi South 17.3 mph 27.6 mph N/A   Clear
7:53 AM 59.0 °F 55.9 °F 90% 29.60 in 7.0 mi South 20.7 mph 28.8 mph N/A   Clear
8:53 AM 60.1 °F 55.9 °F 86% 29.62 in 8.0 mi South 19.6 mph 28.8 mph N/A   Clear
9:53 AM 63.0 °F 55.9 °F 78% 29.62 in 10.0 mi SSW 21.9 mph 35.7 mph N/A   Clear
10:53 AM 66.9 °F 55.9 °F 68% 29.62 in 10.0 mi South 23.0 mph 38.0 mph N/A   Clear
11:53 AM 70.0 °F 55.9 °F 61% 29.61 in 10.0 mi South 21.9 mph 32.2 mph N/A   Clear
12:53 PM 73.9 °F 57.0 °F 55% 29.60 in 10.0 mi South 21.9 mph 34.5 mph N/A   Clear
1:53 PM 73.9 °F 55.9 °F 53% 29.59 in 10.0 mi South 28.8 mph 36.8 mph N/A   Scattered Clouds
2:53 PM 75.9 °F 55.9 °F 50% 29.55 in 10.0 mi South 29.9 mph 41.4 mph N/A   Mostly Cloudy
3:53 PM 77.0 °F 55.9 °F 48% 29.52 in 10.0 mi South 25.3 mph 40.3 mph N/A   Partly Cloudy
5:53 PM 75.9 °F 57.0 °F 52% 29.48 in 10.0 mi South 31.1 mph 41.4 mph N/A   Clear
6:53 PM 72.0 °F 57.9 °F 61% 29.49 in 10.0 mi SSE 27.6 mph 47.2 mph N/A   Clear
7:53 PM 68.0 °F 57.0 °F 68% 29.50 in 10.0 mi SSE 20.7 mph 36.8 mph N/A   Clear
8:20 PM 68.0 °F 57.2 °F 68% 29.56 in 10.0 mi SSE 24.2 mph 39.1 mph N/A   Mostly Cloudy
8:43 PM 66.2 °F 57.2 °F 73% 29.55 in 10.0 mi SSE 28.8 mph 36.8 mph N/A   Scattered Clouds
8:53 PM 66.9 °F 57.9 °F 73% 29.51 in 10.0 mi SSE 29.9 mph 41.4 mph N/A   Clear
9:53 PM 66.0 °F 59.0 °F 78% 29.54 in 10.0 mi South 26.5 mph 36.8 mph N/A   Mostly Cloudy
10:53 PM 66.0 °F 59.0 °F 78% 29.52 in 10.0 mi South 27.6 mph 41.4 mph N/A   Mostly Cloudy
11:05 PM 66.2 °F 59.0 °F 78% 29.56 in 10.0 mi South 24.2 mph 35.7 mph N/A   Scattered Clouds
11:53 PM 64.9 °F 59.0 °F 81% 29.52 in 10.0 mi South 23.0 mph 32.2 mph N/A   Partly Cloudy